Weather History for La Crosse, WI

Change the Weather History Date:

Saturday, April 20, 2013

  Actual Average Record
Temperature  
Mean Temperature 35 °F 51 °F  
Max Temperature 47 °F 62 °F 89 °F (1987)
Min Temperature 22 °F 40 °F 22 °F (2013)
Degree Days  
Heating Degree Days 30 15  
Month to date heating degree days 540 375  
Since 1 July heating degree days 7064 6828  
Cooling Degree Days 0 0  
Month to date cooling degree days 0 0  
Year to date cooling degree days 0 0  
Moisture  
Dew Point 16 °F    
Average Humidity 54    
Maximum Humidity 88    
Minimum Humidity 20    
Precipitation  
Precipitation 0.00 in 0.12 in 1.57 in (1968)
Month to date precipitation 5.16 2.13  
Year to date precipitation 9.68 6.34  
Snow  
Snow 0.00 in 0.00 in 0.10 in (2011)
Month to date snowfall 3.7 1.4  
Since 1 July snowfall 59.3 43.0  
Snow Depth 0.00 in    
Sea Level Pressure  
Sea Level Pressure 30.24 in    
Wind  
Wind Speed 4 mph (North)    
Max Wind Speed 13 mph    
Max Gust Speed 13 mph    
Visibility 10 miles    
Events      
T = Trace of Precipitation, MM = Missing Value Source: NWS Daily Summary

Daily Weather History Graph

Daily Weather History Graph

Search for Another Location

Airport:

Trip Planner

Search our weather history database for the weather conditions in past years. The results will help you decide how hot, cold, wet, or windy it might be!

Date:

Astronomy

Apr. 20, 2013 Rise Set
Actual Time 6:13 AM CDT 7:55 PM CDT
Civil Twilight 5:42 AM CDT 8:25 PM CDT
Nautical Twilight 5:05 AM CDT 9:02 PM CDT
Astronomical Twilight 4:26 AM CDT 9:43 PM CDT
Moon 2:29 PM CDT (4/20) 3:13 AM CDT (4/20)
Length of Visible Light 14h 42m
Length of Day
13h 41m
Waxing Gibbous, 71% of the Moon is Illuminated
Apr 20
Waxing Gibbous
Apr 25
Full
May 2
Last Quarter
May 9
New
May 17
First Quarter

Hourly Weather History & Observations

Time (CDT) Temp. Windchill Dew Point Humidity Pressure Visibility Wind Dir Wind Speed Gust Speed Precip Events Conditions
12:53 AM 30.9 °F 27.5 °F 21.9 °F 69% 30.02 in 10.0 mi WNW 3.5 mph - N/A   Overcast
1:53 AM 28.0 °F 24.2 °F 23.0 °F 81% 30.04 in 10.0 mi ENE 3.5 mph - N/A   Overcast
2:53 AM 28.0 °F - 21.9 °F 78% 30.06 in 10.0 mi Calm Calm - N/A   Scattered Clouds
3:53 AM 27.0 °F - 21.9 °F 81% 30.08 in 10.0 mi Calm Calm - N/A   Clear
4:53 AM 24.1 °F - 19.9 °F 84% 30.11 in 10.0 mi Calm Calm - N/A   Clear
5:53 AM 23.0 °F - 19.9 °F 88% 30.14 in 10.0 mi Calm Calm - N/A   Clear
6:53 AM 24.1 °F - 21.0 °F 88% 30.18 in 10.0 mi Calm Calm - N/A   Clear
7:53 AM 30.9 °F - 24.1 °F 76% 30.21 in 10.0 mi Calm Calm - N/A   Clear
8:53 AM 34.0 °F 28.0 °F 21.0 °F 59% 30.24 in 10.0 mi North 6.9 mph - N/A   Clear
9:53 AM 36.0 °F 30.3 °F 12.9 °F 39% 30.26 in 10.0 mi Variable 6.9 mph - N/A   Clear
10:53 AM 39.0 °F 32.3 °F 12.0 °F 33% 30.28 in 10.0 mi NNW 10.4 mph - N/A   Clear
11:53 AM 39.9 °F 33.9 °F 10.9 °F 31% 30.29 in 10.0 mi NNW 9.2 mph - N/A   Clear
12:53 PM 42.1 °F - 10.0 °F 27% 30.29 in 10.0 mi Calm Calm - N/A   Clear
1:53 PM 43.0 °F 40.3 °F 10.9 °F 27% 30.30 in 10.0 mi Variable 4.6 mph - N/A   Clear
2:53 PM 44.1 °F 40.8 °F 10.9 °F 26% 30.30 in 10.0 mi NW 5.8 mph - N/A   Clear
3:53 PM 45.0 °F 43.5 °F 7.0 °F 21% 30.30 in 10.0 mi Variable 3.5 mph - N/A   Clear
4:53 PM 45.0 °F 42.6 °F 10.9 °F 25% 30.30 in 10.0 mi West 4.6 mph - N/A   Clear
5:53 PM 46.0 °F 44.8 °F 10.9 °F 24% 30.30 in 10.0 mi North 3.5 mph - N/A   Clear
6:53 PM 44.1 °F 41.5 °F 12.9 °F 28% 30.31 in 10.0 mi North 4.6 mph - N/A   Clear
7:53 PM 39.0 °F - 17.1 °F 41% 30.32 in 10.0 mi Calm Calm - N/A   Clear
8:53 PM 41.0 °F 39.0 °F 14.0 °F 33% 30.34 in 10.0 mi East 3.5 mph - N/A   Clear
9:53 PM 39.0 °F 34.8 °F 16.0 °F 39% 30.35 in 10.0 mi East 5.8 mph - N/A   Clear
10:53 PM 37.0 °F 34.5 °F 17.1 °F 44% 30.35 in 10.0 mi ESE 3.5 mph - N/A   Clear
11:53 PM 35.1 °F 30.1 °F 19.9 °F 54% 30.36 in 10.0 mi ESE 5.8 mph - N/A   Scattered Clouds